Current Weather Conditions: station 63115

sailwx.info

Last reported at 2017-Aug-14 20:59 UTC.
Time now 2018-Feb-21 17:34 UTC

Location: N 61°36' E 001°18'.
View on Google Maps.

See reports from other nearby stations

  
Tides and Currents Weather Stations Pressure Air Temp Water Temp Dewpoint Dewpoint Depression Visibility Wind Speed Wind Dir Waves Ship Positions
date/time (UTC)wind fromknots sea level pressurealtimeterstation pressurevisibilityair tempwater tempwave heightnotes
2018-Feb-21 16:00 300 1 27.0 5.6 2.9
2018-Feb-21 15:00 300 4 27.0 5.5 3.1
2018-Feb-21 14:00 300 6 27.0 5.5 3.3
2018-Feb-21 13:00 310 7 27.0 5.5 3.1
2018-Feb-21 12:00 310 9 10.8 5.5 3.5
2018-Feb-21 11:00 300 9 10.8 5.5 3.6
2018-Feb-21 10:00 310 11 10.8 5.5 3.2
2018-Feb-21 09:00 310 9 10.8 5.4 3.9
2018-Feb-21 08:00 290 13 10.8 5.4 3.7
2018-Feb-21 07:00 300 8 10.8 5.3 3.6
2018-Feb-21 06:00 320 12 10.8 5.6 3.6
2018-Feb-21 05:00 310 13 10.8 5.5 3.3
2018-Feb-21 04:00 310 17 10.8 5.6 3.9
2018-Feb-21 03:00 310 13 10.8 5.9 3.8
2018-Feb-21 02:00 310 14 10.8 5.9 3.7
2018-Feb-21 01:00 300 14 10.8 6.1 4.4
2018-Feb-21 00:00 300 15 10.8 6.2 4.3
2018-Feb-20 23:00 310 15 10.8 6.1 4.3
2018-Feb-20 22:00 300 15 5.4 6.2 4.0
2018-Feb-20 21:00 300 17 5.4 6.2 4.2
2018-Feb-20 20:00 300 15 10.8 6.3 4.2
2018-Feb-20 19:00 310 13 5.4 5.4 3.8
2018-Feb-20 18:00 280 13 5.4 6.9 4.0
2018-Feb-20 17:00 280 12 10.8 6.4 4.0
2018-Feb-20 16:00 260 11 5.4 7.1 4.1
2018-Feb-20 15:00 250 8 10.8 6.4 3.8
2018-Feb-20 14:00 210 12 1.1 7.4 3.8
2018-Feb-20 13:00 190 21 2.2 7.0 4.0
2018-Feb-20 12:00 190 25 1.1 6.5 4.0
2018-Feb-20 11:00 180 24 2.2 6.5 3.9
2018-Feb-20 10:00 170 21 2.2 6.4 3.9
2018-Feb-20 09:00 170 24 2.2 6.1 3.8
2018-Feb-20 08:00 170 24 2.2 6.6 3.5
2018-Feb-20 07:00 170 22 2.2 6.8 3.4
2018-Feb-20 06:00 170 22 10.8 7.1 3.0
2018-Feb-20 05:00 160 22 5.4 7.3 2.8
2018-Feb-20 04:00 160 22 2.2 7.8 3.0
2018-Feb-20 03:00 160 22 10.8 7.8 2.7
2018-Feb-20 02:00 170 20 10.8 8.0 3.0
2018-Feb-20 01:00 160 20 10.8 8.1 2.6
2018-Feb-20 00:00 160 22 27.0 8.3 2.3
2018-Feb-19 23:00 170 20 10.8 7.9 2.1
2018-Feb-19 22:00 160 20 27.0 8.4 1.7
2018-Feb-19 21:00 160 17 27.0 9.3 1.6
2018-Feb-19 20:00 150 15 27.0 9.4 1.3
2018-Feb-19 19:00 140 14 27.0 6.5 1.3
2018-Feb-19 18:00 140 12 27.0 6.0 1.2
2018-Feb-19 17:00 130 11 27.0 6.0 1.2